Year,Month,Day,Hour,Minute,Value (Times are PST for barometer in hPa)
2020,11,17,00,00,999.26
2020,11,17,00,01,999.26
2020,11,17,00,02,999.22
2020,11,17,00,03,999.18
2020,11,17,00,04,999.09
2020,11,17,00,05,999.02
2020,11,17,00,06,998.92
2020,11,17,00,07,998.84
2020,11,17,00,08,998.71
2020,11,17,00,09,998.75
2020,11,17,00,10,998.72
2020,11,17,00,11,998.85
2020,11,17,00,12,998.95
2020,11,17,00,13,998.84
2020,11,17,00,14,998.64
2020,11,17,00,15,998.44
2020,11,17,00,16,998.44
2020,11,17,00,17,998.54
2020,11,17,00,18,998.68
2020,11,17,00,19,998.71
2020,11,17,00,20,998.58
2020,11,17,00,21,998.61
2020,11,17,00,22,998.58
2020,11,17,00,23,998.51
2020,11,17,00,24,998.45
2020,11,17,00,25,998.58
2020,11,17,00,26,998.44
2020,11,17,00,27,998.48
2020,11,17,00,28,998.40
2020,11,17,00,29,998.17
2020,11,17,00,30,998.24
2020,11,17,00,31,998.17
2020,11,17,00,32,998.30
2020,11,17,00,33,998.17
2020,11,17,00,34,998.07
2020,11,17,00,35,998.03
2020,11,17,00,36,997.86
2020,11,17,00,37,997.70
2020,11,17,00,38,997.71
2020,11,17,00,39,998.04
2020,11,17,00,40,998.14
2020,11,17,00,41,998.10
2020,11,17,00,42,997.99
2020,11,17,00,43,997.70
2020,11,17,00,44,997.80
2020,11,17,00,45,997.77
2020,11,17,00,46,997.83
2020,11,17,00,47,997.87
2020,11,17,00,48,997.97
2020,11,17,00,49,997.86
2020,11,17,00,50,997.80
2020,11,17,00,51,997.77
2020,11,17,00,52,997.77
2020,11,17,00,53,997.81
2020,11,17,00,54,998.00
2020,11,17,00,55,997.93
2020,11,17,00,56,997.70
2020,11,17,00,57,997.71
2020,11,17,00,58,997.82
2020,11,17,00,59,997.59
2020,11,17,01,00,997.39
2020,11,17,01,01,997.39
2020,11,17,01,02,997.39
2020,11,17,01,03,997.50
2020,11,17,01,04,997.56
2020,11,17,01,05,997.44
2020,11,17,01,06,997.12
2020,11,17,01,07,997.16
2020,11,17,01,08,997.11
2020,11,17,01,09,996.99
2020,11,17,01,10,997.05
2020,11,17,01,11,997.04
2020,11,17,01,12,996.92
2020,11,17,01,13,996.99
2020,11,17,01,14,996.99
2020,11,17,01,15,996.92
2020,11,17,01,16,996.92
2020,11,17,01,17,996.89
2020,11,17,01,18,996.89
2020,11,17,01,19,996.78
2020,11,17,01,20,996.75
2020,11,17,01,21,996.65
2020,11,17,01,22,996.65
2020,11,17,01,23,996.51
2020,11,17,01,24,996.48
2020,11,17,01,25,996.55
2020,11,17,01,26,996.61
2020,11,17,01,27,996.51
2020,11,17,01,28,996.55
2020,11,17,01,29,996.58
2020,11,17,01,30,996.55
2020,11,17,01,31,996.51
2020,11,17,01,32,996.45
2020,11,17,01,33,996.31
2020,11,17,01,34,996.37
2020,11,17,01,35,996.14
2020,11,17,01,36,996.01
2020,11,17,01,37,996.08
2020,11,17,01,38,996.21
2020,11,17,01,39,996.14
2020,11,17,01,40,996.07
2020,11,17,01,41,995.97
2020,11,17,01,42,995.94
2020,11,17,01,43,995.94
2020,11,17,01,44,995.87
2020,11,17,01,45,995.79
2020,11,17,01,46,995.70
2020,11,17,01,47,995.73
2020,11,17,01,48,995.73
2020,11,17,01,49,995.77
2020,11,17,01,50,995.70
2020,11,17,01,51,995.63
2020,11,17,01,52,995.63
2020,11,17,01,53,995.60
2020,11,17,01,54,995.69
2020,11,17,01,55,995.49
2020,11,17,01,56,995.34
2020,11,17,01,57,995.47
2020,11,17,01,58,995.67
2020,11,17,01,59,995.66
2020,11,17,02,00,995.50
2020,11,17,02,01,995.52
2020,11,17,02,02,995.33
2020,11,17,02,03,995.22
2020,11,17,02,04,995.06
2020,11,17,02,05,995.08
2020,11,17,02,06,995.33
2020,11,17,02,07,995.32
2020,11,17,02,08,995.05
2020,11,17,02,09,994.89
2020,11,17,02,10,994.90
2020,11,17,02,11,995.06
2020,11,17,02,12,995.06
2020,11,17,02,13,995.02
2020,11,17,02,14,995.05
2020,11,17,02,15,994.92
2020,11,17,02,16,994.92
2020,11,17,02,17,994.84
2020,11,17,02,18,994.72
2020,11,17,02,19,994.65
2020,11,17,02,20,994.62
2020,11,17,02,21,994.54
2020,11,17,02,22,994.28
2020,11,17,02,23,994.31
2020,11,17,02,24,994.38
2020,11,17,02,25,994.27
2020,11,17,02,26,994.11
2020,11,17,02,27,994.18
2020,11,17,02,28,994.14
2020,11,17,02,29,994.04
2020,11,17,02,30,993.97
2020,11,17,02,31,994.01
2020,11,17,02,32,994.07
2020,11,17,02,33,994.04
2020,11,17,02,34,993.97
2020,11,17,02,35,994.01
2020,11,17,02,36,994.03
2020,11,17,02,37,993.91
2020,11,17,02,38,993.87
2020,11,17,02,39,993.80
2020,11,17,02,40,993.80
2020,11,17,02,41,993.77
2020,11,17,02,42,993.87
2020,11,17,02,43,994.04
2020,11,17,02,44,994.01
2020,11,17,02,45,993.94
2020,11,17,02,46,993.91
2020,11,17,02,47,993.91
2020,11,17,02,48,993.94
2020,11,17,02,49,993.91
2020,11,17,02,50,993.91
2020,11,17,02,51,993.97
2020,11,17,02,52,994.01
2020,11,17,02,53,993.87
2020,11,17,02,54,993.90
2020,11,17,02,55,993.74
2020,11,17,02,56,993.74
2020,11,17,02,57,993.67
2020,11,17,02,58,993.57
2020,11,17,02,59,993.53
2020,11,17,03,00,993.47
2020,11,17,03,01,993.49
2020,11,17,03,02,993.36
2020,11,17,03,03,993.40
2020,11,17,03,04,993.47
2020,11,17,03,05,993.36
2020,11,17,03,06,993.33
2020,11,17,03,07,993.36
2020,11,17,03,08,993.36
2020,11,17,03,09,993.26
2020,11,17,03,10,993.30
2020,11,17,03,11,993.32
2020,11,17,03,12,993.14
2020,11,17,03,13,993.30
2020,11,17,03,14,993.19
2020,11,17,03,15,993.23
2020,11,17,03,16,993.16
2020,11,17,03,17,993.03
2020,11,17,03,18,992.99
2020,11,17,03,19,992.90
2020,11,17,03,20,993.06
2020,11,17,03,21,992.96
2020,11,17,03,22,992.99
2020,11,17,03,23,992.99
2020,11,17,03,24,992.89
2020,11,17,03,25,992.82
2020,11,17,03,26,992.92
2020,11,17,03,27,992.85
2020,11,17,03,28,992.69
2020,11,17,03,29,992.65
2020,11,17,03,30,992.58
2020,11,17,03,31,992.65
2020,11,17,03,32,992.62
2020,11,17,03,33,992.57
2020,11,17,03,34,992.42
2020,11,17,03,35,992.55
2020,11,17,03,36,992.55
2020,11,17,03,37,992.52
2020,11,17,03,38,992.48
2020,11,17,03,39,992.45
2020,11,17,03,40,992.44
2020,11,17,03,41,992.25
2020,11,17,03,42,992.31
2020,11,17,03,43,992.25
2020,11,17,03,44,992.28
2020,11,17,03,45,992.31
2020,11,17,03,46,992.25
2020,11,17,03,47,992.30
2020,11,17,03,48,992.11
2020,11,17,03,49,992.04
2020,11,17,03,50,991.98
2020,11,17,03,51,991.87
2020,11,17,03,52,991.83
2020,11,17,03,53,991.67
2020,11,17,03,54,991.77
2020,11,17,03,55,991.77
2020,11,17,03,56,991.64
2020,11,17,03,57,991.60
2020,11,17,03,58,991.60
2020,11,17,03,59,991.67
2020,11,17,04,00,991.64
2020,11,17,04,01,991.64
2020,11,17,04,02,991.74
2020,11,17,04,03,991.70
2020,11,17,04,04,991.60
2020,11,17,04,05,991.60
2020,11,17,04,06,991.59
2020,11,17,04,07,991.43
2020,11,17,04,08,991.50
2020,11,17,04,09,991.46
2020,11,17,04,10,991.30
2020,11,17,04,11,991.33
2020,11,17,04,12,991.38
2020,11,17,04,13,991.60
2020,11,17,04,14,991.59
2020,11,17,04,15,991.39
2020,11,17,04,16,991.21
2020,11,17,04,17,991.37
2020,11,17,04,18,991.33
2020,11,17,04,19,991.20
2020,11,17,04,20,991.13
2020,11,17,04,21,991.03
2020,11,17,04,22,991.15
2020,11,17,04,23,990.89
2020,11,17,04,24,990.99
2020,11,17,04,25,990.88
2020,11,17,04,26,990.69
2020,11,17,04,27,990.76
2020,11,17,04,28,990.86
2020,11,17,04,29,990.79
2020,11,17,04,30,990.78
2020,11,17,04,31,990.62
2020,11,17,04,32,990.55
2020,11,17,04,33,990.52
2020,11,17,04,34,990.38
2020,11,17,04,35,990.25
2020,11,17,04,36,990.28
2020,11,17,04,37,990.32
2020,11,17,04,38,990.35
2020,11,17,04,39,990.42
2020,11,17,04,40,990.32
2020,11,17,04,41,990.17
2020,11,17,04,42,990.01
2020,11,17,04,43,989.98
2020,11,17,04,44,990.01
2020,11,17,04,45,990.04
2020,11,17,04,46,989.94
2020,11,17,04,47,989.98
2020,11,17,04,48,989.93
2020,11,17,04,49,989.77
2020,11,17,04,50,989.81
2020,11,17,04,51,989.84
2020,11,17,04,52,989.74
2020,11,17,04,53,989.74
2020,11,17,04,54,989.64
2020,11,17,04,55,989.73
2020,11,17,04,56,989.57
2020,11,17,04,57,989.57
2020,11,17,04,58,989.57
2020,11,17,04,59,989.60
2020,11,17,05,00,989.60
2020,11,17,05,01,989.60
2020,11,17,05,02,989.57
2020,11,17,05,03,989.50
2020,11,17,05,04,989.53
2020,11,17,05,05,989.40
2020,11,17,05,06,989.47
2020,11,17,05,07,989.49
2020,11,17,05,08,989.33
2020,11,17,05,09,989.21
2020,11,17,05,10,989.33
2020,11,17,05,11,989.23
2020,11,17,05,12,989.20
2020,11,17,05,13,989.10
2020,11,17,05,14,989.13
2020,11,17,05,15,989.06
2020,11,17,05,16,989.13
2020,11,17,05,17,989.20
2020,11,17,05,18,989.27
2020,11,17,05,19,989.32
2020,11,17,05,20,989.16
2020,11,17,05,21,989.23
2020,11,17,05,22,989.13
2020,11,17,05,23,989.06
2020,11,17,05,24,989.06
2020,11,17,05,25,989.10
2020,11,17,05,26,989.13
2020,11,17,05,27,989.07
2020,11,17,05,28,989.20
2020,11,17,05,29,989.20
2020,11,17,05,30,989.05
2020,11,17,05,31,988.93
2020,11,17,05,32,989.03
2020,11,17,05,33,989.03
2020,11,17,05,34,989.03
2020,11,17,05,35,989.03
2020,11,17,05,36,988.93
2020,11,17,05,37,988.83
2020,11,17,05,38,988.76
2020,11,17,05,39,988.83
2020,11,17,05,40,988.66
2020,11,17,05,41,988.59
2020,11,17,05,42,988.58
2020,11,17,05,43,988.42
2020,11,17,05,44,988.40
2020,11,17,05,45,988.52
2020,11,17,05,46,988.39
2020,11,17,05,47,988.42
2020,11,17,05,48,988.35
2020,11,17,05,49,988.32
2020,11,17,05,50,988.25
2020,11,17,05,51,988.28
2020,11,17,05,52,988.35
2020,11,17,05,53,988.32
2020,11,17,05,54,988.34
2020,11,17,05,55,988.18
2020,11,17,05,56,988.11
2020,11,17,05,57,988.11
2020,11,17,05,58,988.22
2020,11,17,05,59,988.08
2020,11,17,06,00,988.18
2020,11,17,06,01,987.95
2020,11,17,06,02,987.98
2020,11,17,06,03,987.88
2020,11,17,06,04,987.79
2020,11,17,06,05,988.01
2020,11,17,06,06,987.88
2020,11,17,06,07,987.91
2020,11,17,06,08,987.88
2020,11,17,06,09,987.74
2020,11,17,06,10,987.61
2020,11,17,06,11,987.51
2020,11,17,06,12,987.40
2020,11,17,06,13,987.39
2020,11,17,06,14,987.20
2020,11,17,06,15,987.09
2020,11,17,06,16,986.91
2020,11,17,06,17,987.06
2020,11,17,06,18,987.06
2020,11,17,06,19,987.09
2020,11,17,06,20,986.93
2020,11,17,06,21,987.00
2020,11,17,06,22,987.09
2020,11,17,06,23,986.95
2020,11,17,06,24,986.76
2020,11,17,06,25,986.76
2020,11,17,06,26,986.69
2020,11,17,06,27,986.90
2020,11,17,06,28,986.79
2020,11,17,06,29,986.83
2020,11,17,06,30,986.17
2020,11,17,06,31,986.02
2020,11,17,06,32,985.95
2020,11,17,06,33,985.91
2020,11,17,06,34,985.88
2020,11,17,06,35,985.91
2020,11,17,06,36,985.85
2020,11,17,06,37,985.88
2020,11,17,06,38,985.81
2020,11,17,06,39,985.85
2020,11,17,06,40,985.64
2020,11,17,06,41,985.63
2020,11,17,06,42,985.40
2020,11,17,06,43,985.13
2020,11,17,06,44,985.17
2020,11,17,06,45,985.10
2020,11,17,06,46,984.86
2020,11,17,06,47,984.75
2020,11,17,06,48,984.46
2020,11,17,06,49,984.48
2020,11,17,06,50,984.31
2020,11,17,06,51,984.15
2020,11,17,06,52,984.25
2020,11,17,06,53,984.22
2020,11,17,06,54,983.98
2020,11,17,06,55,984.12
2020,11,17,06,56,984.12
2020,11,17,06,57,984.12
2020,11,17,06,58,984.09
2020,11,17,06,59,984.25
2020,11,17,07,00,984.26
2020,11,17,07,01,984.40
2020,11,17,07,02,984.59
2020,11,17,07,03,984.46
2020,11,17,07,04,984.53
2020,11,17,07,05,984.37
2020,11,17,07,06,984.56
2020,11,17,07,07,984.53
2020,11,17,07,08,984.39
2020,11,17,07,09,984.46
2020,11,17,07,10,984.63
2020,11,17,07,11,984.63
2020,11,17,07,12,984.69
2020,11,17,07,13,984.69
2020,11,17,07,14,984.63
2020,11,17,07,15,984.63
2020,11,17,07,16,984.53
2020,11,17,07,17,984.59
2020,11,17,07,18,984.65
2020,11,17,07,19,984.46
2020,11,17,07,20,984.42
2020,11,17,07,21,984.32
2020,11,17,07,22,984.36
2020,11,17,07,23,984.46
2020,11,17,07,24,984.39
2020,11,17,07,25,984.25
2020,11,17,07,26,984.19
2020,11,17,07,27,984.28
2020,11,17,07,28,984.12
2020,11,17,07,29,984.11
2020,11,17,07,30,983.95
2020,11,17,07,31,983.98
2020,11,17,07,32,983.85
2020,11,17,07,33,983.78
2020,11,17,07,34,983.91
2020,11,17,07,35,983.75
2020,11,17,07,36,983.82
2020,11,17,07,37,983.97
2020,11,17,07,38,983.85
2020,11,17,07,39,983.88
2020,11,17,07,40,983.95
2020,11,17,07,41,983.95
2020,11,17,07,42,983.85
2020,11,17,07,43,983.85
2020,11,17,07,44,983.95
2020,11,17,07,45,984.05
2020,11,17,07,46,984.15
2020,11,17,07,47,984.08
2020,11,17,07,48,984.05
2020,11,17,07,49,983.92
2020,11,17,07,50,984.05
2020,11,17,07,51,984.02
2020,11,17,07,52,983.98
2020,11,17,07,53,983.98
2020,11,17,07,54,983.95
2020,11,17,07,55,983.98
2020,11,17,07,56,983.78
2020,11,17,07,57,983.78
2020,11,17,07,58,983.88
2020,11,17,07,59,983.91
2020,11,17,08,00,983.78
2020,11,17,08,01,983.81
2020,11,17,08,02,983.75
2020,11,17,08,03,983.81
2020,11,17,08,04,983.78
2020,11,17,08,05,983.74
2020,11,17,08,06,983.61
2020,11,17,08,07,983.64
2020,11,17,08,08,983.64
2020,11,17,08,09,983.64
2020,11,17,08,10,983.64
2020,11,17,08,11,983.51
2020,11,17,08,12,983.54
2020,11,17,08,13,983.54
2020,11,17,08,14,983.37
2020,11,17,08,15,983.48
2020,11,17,08,16,983.48
2020,11,17,08,17,983.53
2020,11,17,08,18,983.41
2020,11,17,08,19,983.41
2020,11,17,08,20,983.37
2020,11,17,08,21,983.41
2020,11,17,08,22,983.37
2020,11,17,08,23,983.44
2020,11,17,08,24,983.37
2020,11,17,08,25,983.31
2020,11,17,08,26,983.34
2020,11,17,08,27,983.31
2020,11,17,08,28,983.33
2020,11,17,08,29,983.17
2020,11,17,08,30,983.07
2020,11,17,08,31,983.16
2020,11,17,08,32,982.97
2020,11,17,08,33,982.97
2020,11,17,08,34,982.90
2020,11,17,08,35,982.97
2020,11,17,08,36,982.90
2020,11,17,08,37,982.97
2020,11,17,08,38,982.87
2020,11,17,08,39,982.80
2020,11,17,08,40,982.87
2020,11,17,08,41,982.80
2020,11,17,08,42,982.73
2020,11,17,08,43,982.80
2020,11,17,08,44,982.80
2020,11,17,08,45,982.75
2020,11,17,08,46,982.57
2020,11,17,08,47,982.70
2020,11,17,08,48,982.66
2020,11,17,08,49,982.43
2020,11,17,08,50,982.46
2020,11,17,08,51,982.49
2020,11,17,08,52,982.53
2020,11,17,08,53,982.39
2020,11,17,08,54,982.32
2020,11,17,08,55,982.35
2020,11,17,08,56,982.09
2020,11,17,08,57,982.19
2020,11,17,08,58,982.12
2020,11,17,08,59,982.02
2020,11,17,09,00,982.02
2020,11,17,09,01,981.88
2020,11,17,09,02,981.89
2020,11,17,09,03,982.05
2020,11,17,09,04,982.02
2020,11,17,09,05,982.08
2020,11,17,09,06,981.85
2020,11,17,09,07,981.99
2020,11,17,09,08,981.92
2020,11,17,09,09,981.87
2020,11,17,09,10,981.71
2020,11,17,09,11,981.61
2020,11,17,09,12,981.79
2020,11,17,09,13,982.01
2020,11,17,09,14,981.82
2020,11,17,09,15,981.71
2020,11,17,09,16,981.65
2020,11,17,09,17,981.58
2020,11,17,09,18,981.58
2020,11,17,09,19,981.55
2020,11,17,09,20,981.34
2020,11,17,09,21,981.27
2020,11,17,09,22,981.24
2020,11,17,09,23,981.27
2020,11,17,09,24,981.38
2020,11,17,09,25,981.41
2020,11,17,09,26,981.48
2020,11,17,09,27,981.44
2020,11,17,09,28,981.43
2020,11,17,09,29,981.31
2020,11,17,09,30,981.38
2020,11,17,09,31,981.31
2020,11,17,09,32,981.34
2020,11,17,09,33,981.27
2020,11,17,09,34,981.25
2020,11,17,09,35,981.51
2020,11,17,09,36,981.47
2020,11,17,09,37,981.34
2020,11,17,09,38,981.27
2020,11,17,09,39,981.39
2020,11,17,09,40,981.55
2020,11,17,09,41,981.55
2020,11,17,09,42,981.49
2020,11,17,09,43,981.65
2020,11,17,09,44,981.70
2020,11,17,09,45,981.51
2020,11,17,09,46,981.78
2020,11,17,09,47,981.65
2020,11,17,09,48,981.61
2020,11,17,09,49,981.58
2020,11,17,09,50,981.71
2020,11,17,09,51,981.75
2020,11,17,09,52,981.72
2020,11,17,09,53,981.88
2020,11,17,09,54,981.85
2020,11,17,09,55,981.92
2020,11,17,09,56,981.55
2020,11,17,09,57,981.66
2020,11,17,09,58,981.82
2020,11,17,09,59,981.74
2020,11,17,10,00,981.58
2020,11,17,10,01,981.75
2020,11,17,10,02,982.12
2020,11,17,10,03,982.12
2020,11,17,10,04,982.16
2020,11,17,10,05,982.29
2020,11,17,10,06,982.63
2020,11,17,10,07,982.56
2020,11,17,10,08,982.60
2020,11,17,10,09,982.87
2020,11,17,10,10,982.70
2020,11,17,10,11,982.62
2020,11,17,10,12,982.47
2020,11,17,10,13,982.59
2020,11,17,10,14,982.59
2020,11,17,10,15,982.70
2020,11,17,10,16,982.69
2020,11,17,10,17,982.53
2020,11,17,10,18,982.77
2020,11,17,10,19,982.97
2020,11,17,10,20,982.90
2020,11,17,10,21,982.90
2020,11,17,10,22,982.88
2020,11,17,10,23,983.20
2020,11,17,10,24,983.20
2020,11,17,10,25,983.20
2020,11,17,10,26,983.10
2020,11,17,10,27,983.17
2020,11,17,10,28,983.17
2020,11,17,10,29,983.26
2020,11,17,10,30,983.10
2020,11,17,10,31,983.20
2020,11,17,10,32,983.17
2020,11,17,10,33,983.32
2020,11,17,10,34,983.43
2020,11,17,10,35,983.24
2020,11,17,10,36,983.17
2020,11,17,10,37,983.37
2020,11,17,10,38,983.41
2020,11,17,10,39,983.51
2020,11,17,10,40,983.48
2020,11,17,10,41,983.63
2020,11,17,10,42,983.37
2020,11,17,10,43,983.41
2020,11,17,10,44,983.45
2020,11,17,10,45,983.61
2020,11,17,10,46,983.58
2020,11,17,10,47,983.51
2020,11,17,10,48,983.58
2020,11,17,10,49,983.68
2020,11,17,10,50,983.71
2020,11,17,10,51,983.71
2020,11,17,10,52,983.81
2020,11,17,10,53,983.95
2020,11,17,10,54,983.89
2020,11,17,10,55,984.05
2020,11,17,10,56,983.98
2020,11,17,10,57,983.95
2020,11,17,10,58,983.95
2020,11,17,10,59,983.95
2020,11,17,11,00,984.02
2020,11,17,11,01,984.08
2020,11,17,11,02,984.19
2020,11,17,11,03,984.22
2020,11,17,11,04,984.25
2020,11,17,11,05,984.22
2020,11,17,11,06,984.22
2020,11,17,11,07,984.22
2020,11,17,11,08,984.25
2020,11,17,11,09,984.25
2020,11,17,11,10,984.39
2020,11,17,11,11,984.35
2020,11,17,11,12,984.19
2020,11,17,11,13,984.25
2020,11,17,11,14,984.33
2020,11,17,11,15,984.49
2020,11,17,11,16,984.56
2020,11,17,11,17,984.56
2020,11,17,11,18,984.56
2020,11,17,11,19,984.53
2020,11,17,11,20,984.69
2020,11,17,11,21,984.56
2020,11,17,11,22,984.46
2020,11,17,11,23,984.53
2020,11,17,11,24,984.59
2020,11,17,11,25,984.59
2020,11,17,11,26,984.63
2020,11,17,11,27,984.63
2020,11,17,11,28,984.56
2020,11,17,11,29,984.69
2020,11,17,11,30,984.76
2020,11,17,11,31,984.83
2020,11,17,11,32,984.83
2020,11,17,11,33,984.76
2020,11,17,11,34,984.83
2020,11,17,11,35,984.90
2020,11,17,11,36,984.86
2020,11,17,11,37,984.86
2020,11,17,11,38,984.80
2020,11,17,11,39,984.90
2020,11,17,11,40,984.93
2020,11,17,11,41,984.86
2020,11,17,11,42,984.90
2020,11,17,11,43,985.03
2020,11,17,11,44,984.97
2020,11,17,11,45,984.97
2020,11,17,11,46,985.00
2020,11,17,11,47,985.03
2020,11,17,11,48,985.07
2020,11,17,11,49,985.03
2020,11,17,11,50,985.07
2020,11,17,11,51,985.17
2020,11,17,11,52,985.24
2020,11,17,11,53,985.27
2020,11,17,11,54,985.24
2020,11,17,11,55,985.37
2020,11,17,11,56,985.37
2020,11,17,11,57,985.41
2020,11,17,11,58,985.47
2020,11,17,11,59,985.41
2020,11,17,12,00,985.41
2020,11,17,12,01,985.44
2020,11,17,12,02,985.44
2020,11,17,12,03,985.54
2020,11,17,12,04,985.68
2020,11,17,12,05,985.74
2020,11,17,12,06,985.74
2020,11,17,12,07,985.68
2020,11,17,12,08,985.74
2020,11,17,12,09,985.78
2020,11,17,12,10,985.85
2020,11,17,12,11,985.88
2020,11,17,12,12,985.95
2020,11,17,12,13,985.98
2020,11,17,12,14,985.98
2020,11,17,12,15,986.02
2020,11,17,12,16,986.05
2020,11,17,12,17,986.12
2020,11,17,12,18,986.15
2020,11,17,12,19,986.15
2020,11,17,12,20,986.25
2020,11,17,12,21,986.32
2020,11,17,12,22,986.29
2020,11,17,12,23,986.35
2020,11,17,12,24,986.39
2020,11,17,12,25,986.42
2020,11,17,12,26,986.52
2020,11,17,12,27,986.59
2020,11,17,12,28,986.62
2020,11,17,12,29,986.66
2020,11,17,12,30,986.73
2020,11,17,12,31,986.79
2020,11,17,12,32,986.86
2020,11,17,12,33,986.90
2020,11,17,12,34,986.96
2020,11,17,12,35,986.96
2020,11,17,12,36,987.03
2020,11,17,12,37,987.10
2020,11,17,12,38,987.00
2020,11,17,12,39,987.00
2020,11,17,12,40,987.06
2020,11,17,12,41,987.10
2020,11,17,12,42,987.17
2020,11,17,12,43,987.17
2020,11,17,12,44,987.17
2020,11,17,12,45,987.17
2020,11,17,12,46,987.20
2020,11,17,12,47,987.23
2020,11,17,12,48,987.27
2020,11,17,12,49,987.27
2020,11,17,12,50,987.23
2020,11,17,12,51,987.27
2020,11,17,12,52,987.17
2020,11,17,12,53,987.13
2020,11,17,12,54,987.10
2020,11,17,12,55,987.10
2020,11,17,12,56,987.13
2020,11,17,12,57,987.10
2020,11,17,12,58,987.13
2020,11,17,12,59,987.13
2020,11,17,13,00,987.17
2020,11,17,13,01,987.17
2020,11,17,13,02,987.27
2020,11,17,13,03,987.20
2020,11,17,13,04,987.23
2020,11,17,13,05,987.20
2020,11,17,13,06,987.20
2020,11,17,13,07,987.20
2020,11,17,13,08,987.27
2020,11,17,13,09,987.30
2020,11,17,13,10,987.37
2020,11,17,13,11,987.34
2020,11,17,13,12,987.44
2020,11,17,13,13,987.51
2020,11,17,13,14,987.51
2020,11,17,13,15,987.61
2020,11,17,13,16,987.54
2020,11,17,13,17,987.57
2020,11,17,13,18,987.61
2020,11,17,13,19,987.64
2020,11,17,13,20,987.64
2020,11,17,13,21,987.67
2020,11,17,13,22,987.67
2020,11,17,13,23,987.78
2020,11,17,13,24,987.74
2020,11,17,13,25,987.81
2020,11,17,13,26,987.84
2020,11,17,13,27,987.81
2020,11,17,13,28,987.88
2020,11,17,13,29,987.84
2020,11,17,13,30,987.84
2020,11,17,13,31,987.81
2020,11,17,13,32,987.78
2020,11,17,13,33,987.74
2020,11,17,13,34,987.81
2020,11,17,13,35,987.88
2020,11,17,13,36,987.95
2020,11,17,13,37,988.05
2020,11,17,13,38,988.08
2020,11,17,13,39,988.01
2020,11,17,13,40,988.01
2020,11,17,13,41,987.95
2020,11,17,13,42,988.05
2020,11,17,13,43,988.08
2020,11,17,13,44,988.18
2020,11,17,13,45,988.18
2020,11,17,13,46,988.11
2020,11,17,13,47,988.08
2020,11,17,13,48,988.11
2020,11,17,13,49,988.25
2020,11,17,13,50,988.18
2020,11,17,13,51,988.11
2020,11,17,13,52,988.18
2020,11,17,13,53,988.18
2020,11,17,13,54,988.22
2020,11,17,13,55,988.28
2020,11,17,13,56,988.39
2020,11,17,13,57,988.39
2020,11,17,13,58,988.49
2020,11,17,13,59,988.45
2020,11,17,14,00,988.45
2020,11,17,14,01,988.52
2020,11,17,14,02,988.52
2020,11,17,14,03,988.52
2020,11,17,14,04,988.55
2020,11,17,14,05,988.62
2020,11,17,14,06,988.69
2020,11,17,14,07,988.69
2020,11,17,14,08,988.72
2020,11,17,14,09,988.76
2020,11,17,14,10,988.72
2020,11,17,14,11,988.72
2020,11,17,14,12,988.76
2020,11,17,14,13,988.79
2020,11,17,14,14,988.76
2020,11,17,14,15,988.79
2020,11,17,14,16,988.86
2020,11,17,14,17,988.86
2020,11,17,14,18,988.89
2020,11,17,14,19,988.93
2020,11,17,14,20,989.00
2020,11,17,14,21,989.03
2020,11,17,14,22,989.03
2020,11,17,14,23,989.06
2020,11,17,14,24,989.03
2020,11,17,14,25,989.06
2020,11,17,14,26,989.03
2020,11,17,14,27,989.10
2020,11,17,14,28,989.06
2020,11,17,14,29,989.06
2020,11,17,14,30,989.06
2020,11,17,14,31,989.10
2020,11,17,14,32,989.06
2020,11,17,14,33,989.10
2020,11,17,14,34,989.16
2020,11,17,14,35,989.16
2020,11,17,14,36,989.16
2020,11,17,14,37,989.23
2020,11,17,14,38,989.20
2020,11,17,14,39,989.30
2020,11,17,14,40,989.30
2020,11,17,14,41,989.33
2020,11,17,14,42,989.33
2020,11,17,14,43,989.37
2020,11,17,14,44,989.40
2020,11,17,14,45,989.44
2020,11,17,14,46,989.47
2020,11,17,14,47,989.54
2020,11,17,14,48,989.54
2020,11,17,14,49,989.57
2020,11,17,14,50,989.57
2020,11,17,14,51,989.64
2020,11,17,14,52,989.60
2020,11,17,14,53,989.64
2020,11,17,14,54,989.67
2020,11,17,14,55,989.67
2020,11,17,14,56,989.67
2020,11,17,14,57,989.64
2020,11,17,14,58,989.71
2020,11,17,14,59,989.74
2020,11,17,15,00,989.77
2020,11,17,15,01,989.74
2020,11,17,15,02,989.74
2020,11,17,15,03,989.67
2020,11,17,15,04,989.67
2020,11,17,15,05,989.74
2020,11,17,15,06,989.67
2020,11,17,15,07,989.74
2020,11,17,15,08,989.77
2020,11,17,15,09,989.74
2020,11,17,15,10,989.64
2020,11,17,15,11,989.57
2020,11,17,15,12,989.60
2020,11,17,15,13,989.64
2020,11,17,15,14,989.60
2020,11,17,15,15,989.54
2020,11,17,15,16,989.57
2020,11,17,15,17,989.60
2020,11,17,15,18,989.64
2020,11,17,15,19,989.60
2020,11,17,15,20,989.50
2020,11,17,15,21,989.47
2020,11,17,15,22,989.54
2020,11,17,15,23,989.54
2020,11,17,15,24,989.50
2020,11,17,15,25,989.44
2020,11,17,15,26,989.40
2020,11,17,15,27,989.54
2020,11,17,15,28,989.60
2020,11,17,15,29,989.64
2020,11,17,15,30,989.54
2020,11,17,15,31,989.54
2020,11,17,15,32,989.67
2020,11,17,15,33,989.64
2020,11,17,15,34,989.71
2020,11,17,15,35,989.77
2020,11,17,15,36,989.84
2020,11,17,15,37,989.88
2020,11,17,15,38,989.94
2020,11,17,15,39,990.00
2020,11,17,15,40,989.85
2020,11,17,15,41,990.01
2020,11,17,15,42,990.04
2020,11,17,15,43,989.94
2020,11,17,15,44,989.95
2020,11,17,15,45,990.15
2020,11,17,15,46,990.04
2020,11,17,15,47,989.98
2020,11,17,15,48,990.01
2020,11,17,15,49,989.98
2020,11,17,15,50,990.04
2020,11,17,15,51,990.11
2020,11,17,15,52,990.11
2020,11,17,15,53,990.15
2020,11,17,15,54,990.25
2020,11,17,15,55,990.25
2020,11,17,15,56,990.25
2020,11,17,15,57,990.25
2020,11,17,15,58,990.21
2020,11,17,15,59,990.28
2020,11,17,16,00,990.38
2020,11,17,16,01,990.42
2020,11,17,16,02,990.45
2020,11,17,16,03,990.35
2020,11,17,16,04,990.38
2020,11,17,16,05,990.52
2020,11,17,16,06,990.49
2020,11,17,16,07,990.55
2020,11,17,16,08,990.69
2020,11,17,16,09,990.65
2020,11,17,16,10,990.69
2020,11,17,16,11,990.65
2020,11,17,16,12,990.69
2020,11,17,16,13,990.76
2020,11,17,16,14,990.79
2020,11,17,16,15,990.82
2020,11,17,16,16,990.79
2020,11,17,16,17,990.76
2020,11,17,16,18,990.79
2020,11,17,16,19,990.82
2020,11,17,16,20,990.89
2020,11,17,16,21,990.86
2020,11,17,16,22,990.79
2020,11,17,16,23,990.86
2020,11,17,16,24,990.86
2020,11,17,16,25,990.86
2020,11,17,16,26,990.82
2020,11,17,16,27,990.93
2020,11,17,16,28,990.89
2020,11,17,16,29,990.86
2020,11,17,16,30,990.86
2020,11,17,16,31,990.90
2020,11,17,16,32,991.03
2020,11,17,16,33,991.06
2020,11,17,16,34,991.03
2020,11,17,16,35,990.99
2020,11,17,16,36,991.09